Location: B?lite?ti
(46.2833°N, 22.7333°E)
Time: 16:55:53
(UTC+00:00)

Cosmos 1812 Rocket - Pass Details

Date: 24 January 2021
Orbit: 604 x 633 km, 82.5° (Epoch: 28 February)

Event Time Altitude Azimuth Distance (km) Brightness Sun altitude
Rises 16:37:13 0° 356° (N) 2,907 6.9 -13.0°
Reaches altitude 10° 16:39:33 10° 2° (N) 1,991 6.0 -13.3°
Maximum altitude 16:43:48 47° 77° (ENE) 821 3.7 -14.1°
Drops below altitude 10° 16:47:59 10° 151° (SSE) 1,959 6.0 -14.8°
Sets 16:50:15 0° 157° (SSE) 2,855 6.9 -15.1°
